• In Romania
  • List of Countries
  • For 7 days
  • Water Temperature
  • Satellite Maps
  • Weather Map
  • Weather Widgets
  • user-avatar
    Login

    Hourly Weather Ali Bayramli

    Today, 23 August, Wednesday

    Time Temperature Precipitation Wind Pressure Humidity
    00:00 +29°C° 0 mm 2 mps 754 mmHg 41%
    01:00 +29°C° 0 mm 2 mps 754 mmHg 39%
    02:00 +28°C° 0 mm 2 mps 754 mmHg 38%
    03:00 +28°C° 0 mm 2 mps 754 mmHg 38%
    04:00 +28°C° 0 mm 2 mps 754 mmHg 36%
    05:00 +28°C° 0 mm 2 mps 754 mmHg 35%
    06:00 +28°C° 0 mm 2 mps 754 mmHg 34%
    07:00 +30°C° 0 mm 3 mps 755 mmHg 32%
    08:00 +34°C° 0 mm 5 mps 755 mmHg 31%
    09:00 +36°C° 0 mm 5 mps 755 mmHg 29%
    10:00 +38°C° 0 mm 6 mps 755 mmHg 29%
    11:00 +38°C° 0 mm 7 mps 755 mmHg 29%
    12:00 +38°C° 0 mm 8 mps 755 mmHg 29%
    13:00 +38°C° 0 mm 8 mps 755 mmHg 28%
    14:00 +38°C° 0 mm 8 mps 755 mmHg 27%
    15:00 +38°C° 0 mm 8 mps 754 mmHg 26%
    16:00 +36°C° 0 mm 7 mps 754 mmHg 26%
    17:00 +35°C° 0 mm 6 mps 755 mmHg 26%
    18:00 +34°C° 0 mm 5 mps 755 mmHg 27%
    19:00 +33°C° 0 mm 5 mps 755 mmHg 28%
    20:00 +32°C° 0 mm 4 mps 755 mmHg 30%
    21:00 +30°C° 0 mm 3 mps 756 mmHg 32%
    22:00 +30°C° 0 mm 3 mps 756 mmHg 31%
    23:00 +29°C° 0 mm 3 mps 756 mmHg 30%

    Tomorrow, 24 August, Thursday

    Time Temperature Precipitation Wind Pressure Humidity
    00:00 +29°C° 0 mm 3 mps 756 mmHg 30%
    01:00 +29°C° 0 mm 3 mps 756 mmHg 30%
    02:00 +29°C° 0 mm 3 mps 756 mmHg 31%
    03:00 +28°C° 0 mm 3 mps 756 mmHg 32%
    04:00 +28°C° 0 mm 3 mps 757 mmHg 34%
    05:00 +28°C° 0 mm 3 mps 757 mmHg 36%
    06:00 +28°C° 0 mm 3 mps 758 mmHg 38%
    07:00 +30°C° 0 mm 4 mps 758 mmHg 34%
    08:00 +33°C° 0 mm 4 mps 758 mmHg 30%
    09:00 +35°C° 0 mm 5 mps 759 mmHg 26%
    10:00 +36°C° 0 mm 5 mps 759 mmHg 24%
    11:00 +38°C° 0 mm 6 mps 758 mmHg 21%
    12:00 +39°C° 0 mm 7 mps 758 mmHg 19%
    13:00 +39°C° 0 mm 7 mps 758 mmHg 18%
    14:00 +39°C° 0 mm 7 mps 758 mmHg 18%
    15:00 +39°C° 0 mm 7 mps 757 mmHg 18%
    16:00 +38°C° 0 mm 7 mps 757 mmHg 20%
    17:00 +35°C° 0 mm 7 mps 757 mmHg 21%
    18:00 +34°C° 0 mm 6 mps 757 mmHg 23%
    19:00 +33°C° 0 mm 5 mps 758 mmHg 27%
    20:00 +32°C° 0 mm 5 mps 758 mmHg 30%
    21:00 +30°C° 0 mm 4 mps 759 mmHg 34%
    22:00 +29°C° 0 mm 4 mps 759 mmHg 34%
    23:00 +29°C° 0 mm 4 mps 759 mmHg 34%

    Day after tomorrow, 25 August, Friday

    Time Temperature Precipitation Wind Pressure Humidity
    00:00 +28°C° 0 mm 4 mps 759 mmHg 34%
    01:00 +28°C° 0 mm 3 mps 759 mmHg 33%
    02:00 +27°C° 0 mm 3 mps 759 mmHg 32%
    03:00 +27°C° 0 mm 3 mps 759 mmHg 30%
    04:00 +27°C° 0 mm 3 mps 759 mmHg 30%
    05:00 +27°C° 0 mm 3 mps 759 mmHg 30%
    06:00 +27°C° 0 mm 3 mps 759 mmHg 30%
    07:00 +29°C° 0 mm 3 mps 759 mmHg 26%
    08:00 +31°C° 0 mm 3 mps 759 mmHg 23%
    09:00 +34°C° 0 mm 4 mps 760 mmHg 19%
    10:00 +36°C° 0 mm 4 mps 759 mmHg 18%
    11:00 +37°C° 0 mm 5 mps 759 mmHg 16%
    12:00 +39°C° 0 mm 6 mps 759 mmHg 15%
    13:00 +39°C° 0 mm 7 mps 759 mmHg 16%
    14:00 +39°C° 0 mm 8 mps 758 mmHg 18%
    15:00 +39°C° 0 mm 9 mps 758 mmHg 19%
    16:00 +38°C° 0 mm 9 mps 758 mmHg 22%
    17:00 +35°C° 0 mm 8 mps 758 mmHg 25%
    18:00 +34°C° 0 mm 8 mps 758 mmHg 28%
    19:00 +33°C° 0 mm 8 mps 759 mmHg 30%
    20:00 +32°C° 0 mm 7 mps 759 mmHg 32%
    21:00 +30°C° 0 mm 6 mps 759 mmHg 35%
    22:00 +29°C° 0 mm 6 mps 759 mmHg 35%
    23:00 +29°C° 0 mm 5 mps 759 mmHg 36%

    26 August, Saturday

    Time Temperature Precipitation Wind Pressure Humidity
    00:00 +28°C° 0 mm 5 mps 759 mmHg 37%
    01:00 +28°C° 0 mm 4 mps 759 mmHg 39%
    02:00 +27°C° 0 mm 4 mps 759 mmHg 41%
    03:00 +27°C° 0 mm 4 mps 759 mmHg 43%
    04:00 +26°C° 0 mm 4 mps 759 mmHg 45%
    05:00 +26°C° 0 mm 4 mps 759 mmHg 47%
    06:00 +26°C° 0 mm 4 mps 760 mmHg 49%
    07:00 +28°C° 0 mm 4 mps 760 mmHg 43%
    08:00 +30°C° 0 mm 4 mps 760 mmHg 37%
    09:00 +33°C° 0 mm 4 mps 760 mmHg 31%
    10:00 +34°C° 0 mm 5 mps 759 mmHg 27%
    11:00 +36°C° 0 mm 5 mps 759 mmHg 24%
    12:00 +37°C° 0 mm 5 mps 759 mmHg 20%
    13:00 +38°C° 0 mm 6 mps 758 mmHg 21%
    14:00 +38°C° 0 mm 7 mps 758 mmHg 22%
    15:00 +38°C° 0 mm 9 mps 758 mmHg 23%
    16:00 +37°C° 0 mm 9 mps 758 mmHg 27%
    17:00 +35°C° 0 mm 9 mps 758 mmHg 32%
    18:00 +33°C° 0 mm 9 mps 758 mmHg 36%
    19:00 +32°C° 0 mm 8 mps 758 mmHg 40%
    20:00 +31°C° 0 mm 8 mps 759 mmHg 44%
    21:00 +29°C° 0 mm 7 mps 759 mmHg 48%
    22:00 +29°C° 0 mm 6 mps 759 mmHg 50%
    23:00 +28°C° 0 mm 6 mps 758 mmHg 52%

    27 August, Sunday

    Time Temperature Precipitation Wind Pressure Humidity
    00:00 +27°C° 0 mm 5 mps 758 mmHg 54%
    01:00 +27°C° 0 mm 4 mps 758 mmHg 56%
    02:00 +26°C° 0 mm 4 mps 758 mmHg 58%
    03:00 +26°C° 0 mm 3 mps 758 mmHg 60%
    04:00 +26°C° 0 mm 3 mps 758 mmHg 60%
    05:00 +26°C° 0 mm 3 mps 758 mmHg 60%
    06:00 +26°C° 0 mm 3 mps 759 mmHg 60%
    07:00 +27°C° 0 mm 3 mps 759 mmHg 54%
    08:00 +29°C° 0 mm 3 mps 759 mmHg 47%
    09:00 +31°C° 0 mm 3 mps 759 mmHg 41%
    10:00 +33°C° 0 mm 4 mps 759 mmHg 37%
    11:00 +34°C° 0 mm 4 mps 758 mmHg 33%
    12:00 +36°C° 0 mm 4 mps 758 mmHg 29%
    13:00 +36°C° 0 mm 5 mps 758 mmHg 29%
    14:00 +36°C° 0 mm 6 mps 757 mmHg 30%
    15:00 +36°C° 0 mm 7 mps 757 mmHg 31%
    16:00 +35°C° 0 mm 7 mps 757 mmHg 35%
    17:00 +34°C° 0 mm 7 mps 757 mmHg 38%
    18:00 +32°C° 0 mm 7 mps 757 mmHg 42%
    19:00 +30°C° 0 mm 7 mps 758 mmHg 46%
    20:00 +30°C° 0 mm 6 mps 758 mmHg 49%
    21:00 +29°C° 0 mm 5 mps 758 mmHg 52%
    22:00 +28°C° 0 mm 5 mps 758 mmHg 53%
    23:00 +28°C° 0 mm 4 mps 758 mmHg 54%

    28 August, Monday

    Time Temperature Precipitation Wind Pressure Humidity
    00:00 +27°C° 0 mm 4 mps 758 mmHg 55%
    01:00 +27°C° 0 mm 3 mps 758 mmHg 57%
    02:00 +26°C° 0 mm 3 mps 758 mmHg 59%
    03:00 +26°C° 0 mm 2 mps 758 mmHg 61%
    04:00 +26°C° 0 mm 2 mps 758 mmHg 60%
    05:00 +26°C° 0 mm 2 mps 758 mmHg 59%
    06:00 +26°C° 0 mm 2 mps 758 mmHg 59%
    07:00 +28°C° 0 mm 2 mps 758 mmHg 51%
    08:00 +29°C° 0 mm 2 mps 758 mmHg 44%
    09:00 +31°C° 0 mm 2 mps 758 mmHg 37%
    10:00 +33°C° 0 mm 3 mps 758 mmHg 33%
    11:00 +35°C° 0 mm 3 mps 758 mmHg 29%
    12:00 +36°C° 0 mm 3 mps 757 mmHg 25%
    13:00 +36°C° 0 mm 4 mps 757 mmHg 25%
    14:00 +36°C° 0 mm 5 mps 756 mmHg 24%
    15:00 +38°C° 0 mm 6 mps 756 mmHg 24%
    16:00 +35°C° 0 mm 6 mps 756 mmHg 27%
    17:00 +34°C° 0 mm 6 mps 756 mmHg 31%
    18:00 +33°C° 0 mm 6 mps 756 mmHg 34%
    19:00 +32°C° 0 mm 5 mps 756 mmHg 38%
    20:00 +30°C° 0 mm 4 mps 756 mmHg 42%
    21:00 +29°C° 0 mm 3 mps 757 mmHg 46%
    22:00 +28°C° 0 mm 3 mps 756 mmHg 49%
    23:00 +28°C° 0 mm 2 mps 756 mmHg 51%
    Show more